| time (UTC) | temp C | wind direction | speed KPH | gust KPH | rain 1hr cm | rain 24hr cm | rain mn cm | humidity % | barometer mb |
| 20260503030317 | 15 | 224 | 0.0 | 1.6 | 0.00 | 0.00 | 0.00 | 32 | 1009.6 |
| 20260503025315 | 15 | 256 | 1.6 | 3.2 | 0.00 | 0.00 | 0.00 | 32 | 1009.6 |
| 20260503024317 | 15 | 203 | 1.6 | 9.7 | 0.00 | 0.00 | 0.00 | 34 | 1009.7 |
| 20260503023315 | 15 | 202 | 3.2 | 6.4 | 0.00 | 0.00 | 0.00 | 33 | 1009.9 |
| 20260503022317 | 15 | 270 | 0.0 | 0.0 | 0.00 | 0.00 | 0.00 | 33 | 1009.9 |
| 20260503021315 | 15 | 312 | 1.6 | 3.2 | 0.00 | 0.00 | 0.00 | 33 | 1010.1 |
| 20260503020317 | 15 | 233 | 1.6 | 4.8 | 0.00 | 0.00 | 0.00 | 34 | 1009.9 |
| 20260503015316 | 15 | 212 | 0.0 | 1.6 | 0.00 | 0.00 | 0.00 | 33 | 1010.1 |
| 20260503014318 | 15 | 243 | 0.0 | 1.6 | 0.00 | 0.00 | 0.00 | 33 | 1009.9 |
| 20260503013316 | 15 | 295 | 0.0 | 0.0 | 0.00 | 0.00 | 0.00 | 32 | 1010.1 |
| 20260503012318 | 16 | 291 | 0.0 | 0.0 | 0.00 | 0.00 | 0.00 | 32 | 1010.1 |
| 20260503011316 | 16 | 288 | 0.0 | 1.6 | 0.00 | 0.00 | 0.00 | 31 | 1009.9 |
| 20260503010318 | 16 | 199 | 1.6 | 4.8 | 0.00 | 0.00 | 0.00 | 31 | 1009.9 |
| 20260503005316 | 16 | 215 | 0.0 | 1.6 | 0.00 | 0.00 | 0.00 | 30 | 1010.1 |
| 20260503004318 | 16 | 193 | 0.0 | 1.6 | 0.00 | 0.00 | 0.00 | 31 | 1010.3 |
| 20260503003316 | 16 | 209 | 1.6 | 6.4 | 0.00 | 0.00 | 0.00 | 31 | 1010.3 |
| 20260503002319 | 16 | 286 | 0.0 | 0.0 | 0.00 | 0.00 | 0.00 | 30 | 1010.3 |
| 20260503001316 | 17 | 234 | 1.6 | 1.6 | 0.00 | 0.00 | 0.00 | 30 | 1010.4 |
| 20260503000315 | 17 | 202 | 0.0 | 3.2 | 0.00 | 0.00 | 0.00 | 29 | 1010.6 |
| 20260502235316 | 17 | 317 | 0.0 | 1.6 | 0.00 | 0.00 | 0.00 | 29 | 1010.6 |
| 20260502234315 | 17 | 247 | 1.6 | 3.2 | 0.00 | 0.00 | 0.00 | 30 | 1010.8 |
| 20260502233317 | 17 | 232 | 0.0 | 3.2 | 0.00 | 0.00 | 0.00 | 28 | 1010.8 |
| 20260502232315 | 17 | 139 | 0.0 | 1.6 | 0.00 | 0.00 | 0.00 | 27 | 1010.8 |
| 20260502231317 | 17 | 259 | 4.8 | 11.3 | 0.00 | 0.00 | 0.00 | 27 | 1011.0 |
| 20260502230315 | 17 | 204 | 3.2 | 6.4 | 0.00 | 0.00 | 0.00 | 27 | 1011.1 |
| 20260502225317 | 17 | 267 | 3.2 | 6.4 | 0.00 | 0.00 | 0.00 | 25 | 1011.1 |
| 20260502224315 | 18 | 254 | 3.2 | 6.4 | 0.00 | 0.00 | 0.00 | 27 | 1011.3 |
| 20260502223317 | 18 | 241 | 3.2 | 6.4 | 0.00 | 0.00 | 0.00 | 26 | 1011.3 |
| 20260502222315 | 18 | 147 | 3.2 | 6.4 | 0.00 | 0.00 | 0.00 | 26 | 1011.5 |
| 20260502221317 | 18 | 339 | 3.2 | 6.4 | 0.00 | 0.00 | 0.00 | 26 | 1011.5 |
| 20260502220315 | 17 | 315 | 0.0 | 1.6 | 0.00 | 0.00 | 0.00 | 27 | 1011.5 |
| 20260502215317 | 17 | 126 | 0.0 | 1.6 | 0.00 | 0.00 | 0.00 | 26 | 1011.6 |
| 20260502214315 | 18 | 304 | 4.8 | 11.3 | 0.00 | 0.00 | 0.00 | 26 | 1012.0 |
| 20260502213318 | 18 | 218 | 4.8 | 12.9 | 0.00 | 0.00 | 0.00 | 27 | 1012.0 |
| 20260502212316 | 18 | 330 | 3.2 | 9.7 | 0.00 | 0.00 | 0.00 | 24 | 1012.3 |
| 20260502211318 | 18 | 292 | 3.2 | 6.4 | 0.00 | 0.00 | 0.00 | 25 | 1012.3 |
| 20260502210316 | 18 | 200 | 6.4 | 11.3 | 0.00 | 0.00 | 0.00 | 26 | 1012.5 |
| 20260502205318 | 18 | 288 | 3.2 | 4.8 | 0.00 | 0.00 | 0.00 | 24 | 1012.7 |
| 20260502204316 | 19 | 338 | 1.6 | 4.8 | 0.00 | 0.00 | 0.00 | 25 | 1012.9 |
| 20260502203318 | 18 | 236 | 3.2 | 9.7 | 0.00 | 0.00 | 0.00 | 24 | 1013.0 |
| 20260502202316 | 18 | 320 | 3.2 | 11.3 | 0.00 | 0.00 | 0.00 | 23 | 1013.0 |
| 20260502201318 | 18 | 260 | 1.6 | 6.4 | 0.00 | 0.00 | 0.00 | 25 | 1013.2 |
| 20260502200316 | 18 | 276 | 4.8 | 11.3 | 0.00 | 0.00 | 0.00 | 26 | 1013.4 |
| 20260502195318 | 18 | 232 | 1.6 | 6.4 | 0.00 | 0.00 | 0.00 | 26 | 1013.4 |
| 20260502194316 | 18 | 247 | 3.2 | 4.8 | 0.00 | 0.00 | 0.00 | 27 | 1013.9 |
| 20260502193318 | 18 | 304 | 4.8 | 9.7 | 0.00 | 0.00 | 0.00 | 26 | 1013.9 |
| 20260502192316 | 18 | 261 | 3.2 | 9.7 | 0.00 | 0.00 | 0.00 | 25 | 1014.1 |
| 20260502191314 | 19 | 244 | 6.4 | 12.9 | 0.00 | 0.00 | 0.00 | 25 | 1014.4 |
| 20260502190317 | 18 | 205 | 4.8 | 11.3 | 0.00 | 0.00 | 0.00 | 27 | 1014.4 |
| 20260502185315 | 18 | 330 | 6.4 | 12.9 | 0.00 | 0.00 | 0.00 | 26 | 1014.4 |
| 20260502184317 | 18 | 328 | 4.8 | 11.3 | 0.00 | 0.00 | 0.00 | 26 | 1014.8 |
| 20260502183315 | 18 | 302 | 3.2 | 4.8 | 0.00 | 0.00 | 0.00 | 28 | 1014.8 |
| 20260502182317 | 18 | 275 | 8.0 | 12.9 | 0.00 | 0.00 | 0.00 | 26 | 1015.1 |
| 20260502181315 | 18 | 19 | 1.6 | 6.4 | 0.00 | 0.00 | 0.00 | 26 | 1015.1 |
| 20260502180317 | 19 | 5 | 4.8 | 9.7 | 0.00 | 0.00 | 0.00 | 24 | 1015.1 |
| 20260502170318 | 19 | 322 | 3.2 | 9.7 | 0.00 | 0.00 | 0.00 | 23 | 1016.1 |
| 20260502164318 | 18 | 324 | 3.2 | 6.4 | 0.00 | 0.00 | 0.00 | 24 | 1016.1 |
| 20260502163316 | 18 | 359 | 0.0 | 6.4 | 0.00 | 0.00 | 0.00 | 27 | 1016.0 |
| 20260502162318 | 18 | 291 | 3.2 | 6.4 | 0.00 | 0.00 | 0.00 | 26 | 1016.1 |
| 20260502161316 | 18 | 299 | 6.4 | 12.9 | 0.00 | 0.00 | 0.00 | 23 | 1016.5 |
| 20260502160318 | 19 | 193 | 3.2 | 4.8 | 0.00 | 0.00 | 0.00 | 27 | 1016.3 |
| 20260502152318 | 18 | 318 | 3.2 | 9.7 | 0.00 | 0.00 | 0.00 | 27 | 1016.8 |
| 20260502151317 | 18 | 271 | 1.6 | 6.4 | 0.00 | 0.00 | 0.00 | 28 | 1016.8 |
| 20260502150315 | 17 | 291 | 1.6 | 3.2 | 0.00 | 0.00 | 0.00 | 32 | 1017.0 |
| 20260502130716 | 8 | 319 | 0.0 | 0.0 | 0.00 | 0.00 | 0.00 | 48 | 1017.7 |
| 20260502123718 | 5 | 286 | 0.0 | 0.0 | 0.00 | 0.00 | 0.00 | 65 | 1017.5 |
| 20260502122716 | 3 | 261 | 0.0 | 0.0 | 0.00 | 0.00 | 0.00 | 67 | 1017.9 |
| 20260502121714 | 3 | 286 | 0.0 | 0.0 | 0.00 | 0.00 | 0.00 | 64 | 1017.9 |
| 20260502120717 | 2 | 287 | 0.0 | 0.0 | 0.00 | 0.00 | 0.00 | 63 | 1017.5 |
| 20260502115715 | 2 | 291 | 0.0 | 0.0 | 0.00 | 0.00 | 0.00 | 64 | 1017.5 |
| 20260502114717 | 2 | 267 | 0.0 | 0.0 | 0.00 | 0.00 | 0.00 | 63 | 1017.5 |
| 20260502113715 | 2 | 284 | 0.0 | 0.0 | 0.00 | 0.00 | 0.00 | 63 | 1017.5 |
| 20260502112718 | 2 | 257 | 0.0 | 0.0 | 0.00 | 0.00 | 0.00 | 62 | 1017.5 |
| 20260502111716 | 1 | 263 | 0.0 | 0.0 | 0.00 | 0.00 | 0.00 | 62 | 1017.5 |
| 20260502110718 | 1 | 270 | 0.0 | 0.0 | 0.00 | 0.00 | 0.00 | 61 | 1017.3 |
| 20260502105716 | 1 | 263 | 0.0 | 0.0 | 0.00 | 0.00 | 0.00 | 61 | 1017.3 |
| 20260502104715 | 2 | 265 | 0.0 | 0.0 | 0.00 | 0.00 | 0.00 | 61 | 1017.5 |
| 20260502103717 | 2 | 265 | 0.0 | 0.0 | 0.00 | 0.00 | 0.00 | 61 | 1017.5 |
| 20260502102715 | 2 | 265 | 0.0 | 0.0 | 0.00 | 0.00 | 0.00 | 60 | 1017.5 |
| 20260502101717 | 2 | 264 | 0.0 | 0.0 | 0.00 | 0.00 | 0.00 | 60 | 1017.4 |
| 20260502100715 | 2 | 263 | 0.0 | 0.0 | 0.00 | 0.00 | 0.00 | 60 | 1017.5 |
| 20260502090717 | 2 | 264 | 0.0 | 0.0 | 0.00 | 0.00 | 0.00 | 58 | 1017.3 |
| 20260502070716 | 3 | 250 | 0.0 | 0.0 | 0.00 | 0.00 | 0.00 | 54 | 1017.7 |
| 20260502065718 | 3 | 254 | 0.0 | 0.0 | 0.00 | 0.00 | 0.00 | 54 | 1017.5 |
| 20260502064716 | 4 | 253 | 0.0 | 0.0 | 0.00 | 0.00 | 0.00 | 54 | 1017.5 |
| 20260502063715 | 4 | 254 | 0.0 | 0.0 | 0.00 | 0.00 | 0.00 | 53 | 1017.5 |
| 20260502062717 | 4 | 254 | 0.0 | 0.0 | 0.00 | 0.00 | 0.00 | 52 | 1017.7 |
| 20260502061715 | 4 | 254 | 0.0 | 0.0 | 0.00 | 0.00 | 0.00 | 52 | 1017.9 |
| 20260502060717 | 5 | 261 | 0.0 | 0.0 | 0.00 | 0.00 | 0.00 | 51 | 1017.5 |
| 20260502055716 | 5 | 261 | 0.0 | 0.0 | 0.00 | 0.00 | 0.00 | 51 | 1017.5 |
| 20260502054718 | 5 | 261 | 0.0 | 0.0 | 0.00 | 0.00 | 0.00 | 50 | 1017.5 |
| 20260502053716 | 5 | 261 | 0.0 | 0.0 | 0.00 | 0.00 | 0.00 | 49 | 1017.5 |
| 20260502052718 | 5 | 262 | 0.0 | 0.0 | 0.00 | 0.00 | 0.00 | 48 | 1017.3 |
| 20260502051715 | 5 | 262 | 0.0 | 0.0 | 0.00 | 0.00 | 0.00 | 48 | 1017.5 |
| 20260502050718 | 5 | 261 | 0.0 | 0.0 | 0.00 | 0.00 | 0.00 | 47 | 1017.4 |
| 20260502045717 | 5 | 263 | 0.0 | 0.0 | 0.00 | 0.00 | 0.00 | 46 | 1017.5 |
| 20260502044718 | 6 | 263 | 0.0 | 0.0 | 0.00 | 0.00 | 0.00 | 46 | 1017.4 |
| 20260502043716 | 6 | 263 | 0.0 | 0.0 | 0.00 | 0.00 | 0.00 | 45 | 1017.5 |
| 20260502042714 | 6 | 263 | 0.0 | 0.0 | 0.00 | 0.00 | 0.00 | 45 | 1017.5 |
| 20260502041717 | 6 | 263 | 0.0 | 0.0 | 0.00 | 0.00 | 0.00 | 44 | 1017.5 |
| 20260502040715 | 6 | 267 | 0.0 | 0.0 | 0.00 | 0.00 | 0.00 | 44 | 1017.5 |
| 20260502035717 | 7 | 267 | 0.0 | 0.0 | 0.00 | 0.00 | 0.00 | 43 | 1017.2 |
| 20260502034716 | 7 | 294 | 0.0 | 0.0 | 0.00 | 0.00 | 0.00 | 42 | 1017.4 |
| 20260502033718 | 7 | 294 | 0.0 | 0.0 | 0.00 | 0.00 | 0.00 | 42 | 1017.2 |
| 20260502032716 | 7 | 287 | 0.0 | 0.0 | 0.00 | 0.00 | 0.00 | 41 | 1017.2 |
| 20260502031718 | 7 | 300 | 0.0 | 0.0 | 0.00 | 0.00 | 0.00 | 41 | 1017.2 |